Location: *
(49.0044°N, 9.5056°E)
Time: 18:27:19
(UTC+00:00)

KORONAS-FOTON - Pass Details

Date: 22 September 2019
Orbit: 506 x 533 km, 82.4° (Epoch: 22 October)

Event Time Altitude Azimuth Distance (km) Brightness Sun altitude
Rises 19:15:45 0° 350° (N) 2,626 7.9 -19.1°
Reaches altitude 10° 19:17:54 10° 350° (N) 1,734 6.9 -19.5°
Maximum altitude 19:21:42 89° 78° (ENE) 514 3.6 -20.0°
Enters shadow 19:22:32 53° 170° (S) 628 3.9 -20.2°
